This is the latest recevied weather packets stored in our database for station/object KG5MMT-15. If no packets are shown the sender has not sent any weather packets the latest 10 day(s).
| Time | Temp. | Humidity | Pressure | Rain* | Wind** | Luminosity | Snow |
|---|---|---|---|---|---|---|---|
| 1788104275 | 25° C | 32% | 0 hPa | 0 mm | - | - | - |
| 1788103975 | 25° C | 32% | 0 hPa | 0 mm | - | - | - |
| 1788103683 | 25.56° C | 32% | 0 hPa | 0 mm | - | - | - |
| 1788103375 | 25.56° C | 32% | 0 hPa | 0 mm | - | - | - |
| 1788103074 | 25° C | 33% | 0 hPa | 0 mm | - | - | - |
| 1788102775 | 24.44° C | 34% | 0 hPa | 0 mm | - | - | - |
| 1788102474 | 24.44° C | 34% | 0 hPa | 0 mm | - | - | - |
| 1788102175 | 25° C | 35% | 0 hPa | 0 mm | - | - | - |
| 1788101874 | 25° C | 35% | 0 hPa | 0 mm | - | - | - |
| 1788101575 | 24.44° C | 37% | 0 hPa | 0 mm | - | - | - |
| 1788101275 | 24.44° C | 36% | 0 hPa | 0 mm | - | - | - |
| 1788100975 | 24.44° C | 36% | 0 hPa | 0 mm | - | - | - |
| 1788100675 | 23.89° C | 37% | 0 hPa | 0 mm | - | - | - |
| 1788100375 | 23.33° C | 37% | 0 hPa | 0 mm | - | - | - |
| 1788100075 | 23.33° C | 42% | 0 hPa | 0 mm | - | - | - |
| 1788099775 | 22.22° C | 44% | 0 hPa | 0 mm | - | - | - |
| 1788099475 | 21.67° C | 53% | 0 hPa | 0 mm | - | - | - |
| 1788099175 | 21.11° C | 51% | 0 hPa | 0 mm | - | - | - |
| 1788098875 | 20.56° C | 58% | 0 hPa | 0 mm | - | - | - |
| 1788098575 | 20° C | 58% | 0 hPa | 0 mm | - | - | - |
| 1788098275 | 19.44° C | 65% | 0 hPa | 0 mm | - | - | - |
| 1788097975 | 18.89° C | 66% | 0 hPa | 0 mm | - | - | - |
| 1788097675 | 18.33° C | 69% | 0 hPa | 0 mm | - | - | - |
| 1788097375 | 17.78° C | 68% | 0 hPa | 0 mm | - | - | - |
| 1788097075 | 17.22° C | 71% | 0 hPa | 0 mm | - | - | - |
* Rain latest hour (hover to see other rain measurements)
** Current wind speed in m/s (hover to see current wind gust speed)